Time,TemperatureF,DewpointF,PressureIn,WindDirection,WindDirectionDegrees,WindSpeedMPH,WindSpeedGustMPH,Humidity,HourlyPrecipIn,Conditions,Clouds,dailyrainin,SoftwareType,DateUTC
2013-09-16 00:01:00,84.4,61.4,29.65,East,79,1.0,1.0,46,0.00,,,0.00,Wunderground v.1.15,2013-09-16 07:01:00,
2013-09-16 00:06:00,84.9,58.6,29.65,ENE,72,0.0,1.0,41,0.00,,,0.00,Wunderground v.1.15,2013-09-16 07:06:00,
2013-09-16 00:11:00,85.7,59.3,29.65,ESE,115,0.0,0.0,41,0.00,,,0.00,Wunderground v.1.15,2013-09-16 07:11:00,
2013-09-16 00:16:00,85.9,57.3,29.65,ESE,114,0.0,0.0,38,0.00,,,0.00,Wunderground v.1.15,2013-09-16 07:16:00,
2013-09-16 00:21:00,85.5,60.4,29.65,ESE,115,0.0,0.0,43,0.00,,,0.00,Wunderground v.1.15,2013-09-16 07:21:00,
2013-09-16 00:26:00,84.3,61.9,29.65,North,5,0.0,3.0,47,0.00,,,0.00,Wunderground v.1.15,2013-09-16 07:26:00,
2013-09-16 00:31:00,82.2,63.4,29.65,NNE,24,0.0,2.0,53,0.00,,,0.00,Wunderground v.1.15,2013-09-16 07:31:00,
2013-09-16 00:36:00,81.1,60.1,29.66,NNE,27,0.0,2.0,49,0.00,,,0.00,Wunderground v.1.15,2013-09-16 07:36:00,
2013-09-16 00:41:00,81.6,59.4,29.65,NNE,27,0.0,0.0,47,0.00,,,0.00,Wunderground v.1.15,2013-09-16 07:41:00,
2013-09-16 00:46:00,82.2,61.7,29.65,North,4,1.0,5.0,50,0.00,,,0.00,Wunderground v.1.15,2013-09-16 07:46:00,
2013-09-16 00:51:00,81.3,62.0,29.65,North,4,0.0,0.0,52,0.00,,,0.00,Wunderground v.1.15,2013-09-16 07:51:00,
2013-09-16 00:56:00,80.2,60.4,29.66,NE,37,0.0,1.0,51,0.00,,,0.00,Wunderground v.1.15,2013-09-16 07:56:00,
2013-09-16 01:01:00,80.1,58.6,29.65,NE,40,0.0,0.0,48,0.00,,,0.00,Wunderground v.1.15,2013-09-16 08:01:00,
2013-09-16 01:06:00,81.3,59.1,29.65,ENE,72,0.0,1.0,47,0.00,,,0.00,Wunderground v.1.15,2013-09-16 08:06:00,
2013-09-16 01:11:00,82.4,58.9,29.65,ENE,73,0.0,1.0,45,0.00,,,0.00,Wunderground v.1.15,2013-09-16 08:11:00,
2013-09-16 01:16:00,83.7,58.8,29.65,ENE,69,1.0,2.0,43,0.00,,,0.00,Wunderground v.1.15,2013-09-16 08:16:00,
2013-09-16 01:21:00,84.9,58.6,29.65,ENE,65,1.0,2.0,41,0.00,,,0.00,Wunderground v.1.15,2013-09-16 08:21:00,
2013-09-16 01:26:00,85.8,58.0,29.65,ENE,66,1.0,2.0,39,0.00,,,0.00,Wunderground v.1.15,2013-09-16 08:26:00,
2013-09-16 01:31:00,86.4,57.8,29.65,ENE,77,1.0,1.0,38,0.00,,,0.00,Wunderground v.1.15,2013-09-16 08:31:00,
2013-09-16 01:36:00,86.6,57.2,29.65,East,96,0.0,1.0,37,0.00,,,0.00,Wunderground v.1.15,2013-09-16 08:36:00,
2013-09-16 01:41:00,86.5,57.1,29.65,East,82,0.0,1.0,37,0.00,,,0.00,Wunderground v.1.15,2013-09-16 08:41:00,
2013-09-16 01:46:00,86.3,59.8,29.65,ENE,78,0.0,1.0,41,0.00,,,0.00,Wunderground v.1.15,2013-09-16 08:46:00,
2013-09-16 01:51:00,85.5,58.4,29.65,ENE,77,0.0,0.0,40,0.00,,,0.00,Wunderground v.1.15,2013-09-16 08:51:00,
2013-09-16 01:56:00,84.7,57.7,29.65,ENE,77,0.0,0.0,40,0.00,,,0.00,Wunderground v.1.15,2013-09-16 08:56:00,
2013-09-16 02:01:00,84.5,57.5,29.65,East,79,0.0,1.0,40,0.00,,,0.00,Wunderground v.1.15,2013-09-16 09:01:00,
2013-09-16 02:06:00,84.1,57.2,29.65,ESE,122,0.0,1.0,40,0.00,,,0.00,Wunderground v.1.15,2013-09-16 09:06:00,
2013-09-16 02:11:00,84.0,57.1,29.65,ESE,115,2.0,3.0,40,0.00,,,0.00,Wunderground v.1.15,2013-09-16 09:11:00,
2013-09-16 02:16:00,84.2,57.3,29.65,ESE,115,1.0,3.0,40,0.00,,,0.00,Wunderground v.1.15,2013-09-16 09:16:00,
2013-09-16 02:21:00,84.5,56.8,29.65,ESE,115,1.0,1.0,39,0.00,,,0.00,Wunderground v.1.15,2013-09-16 09:21:00,
2013-09-16 02:26:00,84.9,56.5,29.65,ESE,116,1.0,3.0,38,0.00,,,0.00,Wunderground v.1.15,2013-09-16 09:26:00,
2013-09-16 02:31:00,85.2,56.7,29.65,SE,127,1.0,1.0,38,0.00,,,0.00,Wunderground v.1.15,2013-09-16 09:31:00,
2013-09-16 02:36:00,85.2,56.0,29.65,ESE,117,2.0,2.0,37,0.00,,,0.00,Wunderground v.1.15,2013-09-16 09:36:00,
2013-09-16 02:41:00,85.4,59.7,29.65,NNE,26,0.0,1.0,42,0.00,,,0.00,Wunderground v.1.15,2013-09-16 09:41:00,
2013-09-16 02:46:00,83.4,62.8,29.65,NNE,14,0.0,2.0,50,0.00,,,0.00,Wunderground v.1.15,2013-09-16 09:46:00,
2013-09-16 02:51:00,81.4,61.5,29.65,ESE,106,0.0,1.0,51,0.00,,,0.00,Wunderground v.1.15,2013-09-16 09:51:00,
2013-09-16 02:56:00,80.6,59.7,29.65,ESE,104,0.0,1.0,49,0.00,,,0.00,Wunderground v.1.15,2013-09-16 09:56:00,
2013-09-16 03:01:00,80.1,60.9,29.65,NW,322,0.0,0.0,52,0.00,,,0.00,Wunderground v.1.15,2013-09-16 10:01:00,
2013-09-16 03:06:00,79.3,61.2,29.65,NW,321,0.0,0.0,54,0.00,,,0.00,Wunderground v.1.15,2013-09-16 10:06:00,
2013-09-16 03:11:00,78.6,59.5,29.66,NW,321,0.0,0.0,52,0.00,,,0.00,Wunderground v.1.15,2013-09-16 10:11:00,
2013-09-16 03:16:00,78.6,58.4,29.65,NNW,336,0.0,1.0,50,0.00,,,0.00,Wunderground v.1.15,2013-09-16 10:16:00,
2013-09-16 03:20:00,78.6,56.7,29.65,North,359,0.0,0.0,47,0.00,,,0.00,Wunderground v.1.15,2013-09-16 10:20:00,
2013-09-16 03:25:00,78.5,57.2,29.65,East,86,0.0,2.0,48,0.00,,,0.00,Wunderground v.1.15,2013-09-16 10:25:00,
2013-09-16 03:30:00,78.9,58.7,29.66,ESE,115,0.0,0.0,50,0.00,,,0.00,Wunderground v.1.15,2013-09-16 10:30:00,
2013-09-16 03:35:00,78.6,60.0,29.65,NW,307,1.0,3.0,53,0.00,,,0.00,Wunderground v.1.15,2013-09-16 10:35:00,
2013-09-16 03:40:00,77.6,59.1,29.66,ESE,108,1.0,1.0,53,0.00,,,0.00,Wunderground v.1.15,2013-09-16 10:40:00,
2013-09-16 03:45:00,78.0,59.5,29.66,ESE,110,0.0,3.0,53,0.00,,,0.00,Wunderground v.1.15,2013-09-16 10:45:00,
2013-09-16 03:50:00,78.2,60.2,29.66,NNW,347,0.0,1.0,54,0.00,,,0.00,Wunderground v.1.15,2013-09-16 10:50:00,
2013-09-16 03:55:00,77.5,60.6,29.66,East,82,1.0,1.0,56,0.00,,,0.00,Wunderground v.1.15,2013-09-16 10:55:00,
2013-09-16 04:00:00,77.9,58.3,29.66,NE,38,0.0,1.0,51,0.00,,,0.00,Wunderground v.1.15,2013-09-16 11:00:00,
2013-09-16 04:05:00,79.0,58.2,29.66,NE,49,0.0,1.0,49,0.00,,,0.00,Wunderground v.1.15,2013-09-16 11:05:00,
2013-09-16 04:10:00,79.7,58.3,29.66,East,83,0.0,1.0,48,0.00,,,0.00,Wunderground v.1.15,2013-09-16 11:10:00,
2013-09-16 04:15:00,79.9,57.9,29.66,East,83,0.0,1.0,47,0.00,,,0.00,Wunderground v.1.15,2013-09-16 11:15:00,
2013-09-16 04:20:00,80.0,58.0,29.66,NE,54,0.0,0.0,47,0.00,,,0.00,Wunderground v.1.15,2013-09-16 11:20:00,
2013-09-16 04:25:00,79.9,57.9,29.66,ENE,63,0.0,1.0,47,0.00,,,0.00,Wunderground v.1.15,2013-09-16 11:25:00,
2013-09-16 04:30:00,79.8,57.8,29.67,ENE,69,0.0,1.0,47,0.00,,,0.00,Wunderground v.1.15,2013-09-16 11:30:00,
2013-09-16 04:35:00,80.1,57.5,29.67,ENE,69,0.0,1.0,46,0.00,,,0.00,Wunderground v.1.15,2013-09-16 11:35:00,
2013-09-16 04:40:00,80.2,57.5,29.67,East,83,0.0,2.0,46,0.00,,,0.00,Wunderground v.1.15,2013-09-16 11:40:00,
2013-09-16 04:45:00,80.8,56.9,29.67,ENE,58,1.0,3.0,44,0.00,,,0.00,Wunderground v.1.15,2013-09-16 11:45:00,
2013-09-16 04:50:00,81.3,57.3,29.67,ENE,70,0.0,1.0,44,0.00,,,0.00,Wunderground v.1.15,2013-09-16 11:50:00,
2013-09-16 04:55:00,81.0,57.0,29.67,ENE,70,0.0,1.0,44,0.00,,,0.00,Wunderground v.1.15,2013-09-16 11:55:00,
2013-09-16 05:00:00,80.7,56.8,29.67,East,94,0.0,1.0,44,0.00,,,0.00,Wunderground v.1.15,2013-09-16 12:00:00,
2013-09-16 05:05:00,81.0,57.0,29.67,ENE,75,2.0,4.0,44,0.00,,,0.00,Wunderground v.1.15,2013-09-16 12:05:00,
2013-09-16 05:10:00,81.3,57.3,29.67,ENE,69,0.0,1.0,44,0.00,,,0.00,Wunderground v.1.15,2013-09-16 12:10:00,
2013-09-16 05:15:00,81.4,56.8,29.67,ENE,63,2.0,3.0,43,0.00,,,0.00,Wunderground v.1.15,2013-09-16 12:15:00,
2013-09-16 05:20:00,81.5,57.5,29.68,ENE,76,1.0,2.0,44,0.00,,,0.00,Wunderground v.1.15,2013-09-16 12:20:00,
2013-09-16 05:25:00,81.4,57.4,29.68,East,90,2.0,3.0,44,0.00,,,0.00,Wunderground v.1.15,2013-09-16 12:25:00,
2013-09-16 05:30:00,81.2,57.2,29.68,ENE,66,2.0,2.0,44,0.00,,,0.00,Wunderground v.1.15,2013-09-16 12:30:00,
2013-09-16 05:35:00,81.7,57.0,29.68,East,91,1.0,3.0,43,0.00,,,0.00,Wunderground v.1.15,2013-09-16 12:35:00,
2013-09-16 05:40:00,81.9,56.6,29.68,East,82,1.0,2.0,42,0.00,,,0.00,Wunderground v.1.15,2013-09-16 12:40:00,
2013-09-16 05:45:00,82.3,56.9,29.68,ENE,62,2.0,4.0,42,0.00,,,0.00,Wunderground v.1.15,2013-09-16 12:45:00,
2013-09-16 05:50:00,82.4,57.0,29.68,ENE,77,0.0,2.0,42,0.00,,,0.00,Wunderground v.1.15,2013-09-16 12:50:00,
2013-09-16 05:55:00,82.3,56.2,29.68,ENE,68,0.0,2.0,41,0.00,,,0.00,Wunderground v.1.15,2013-09-16 12:55:00,
2013-09-16 06:00:00,82.3,55.6,29.68,ENE,77,0.0,1.0,40,0.00,,,0.00,Wunderground v.1.15,2013-09-16 13:00:00,
2013-09-16 06:05:00,82.6,55.8,29.69,East,100,1.0,2.0,40,0.00,,,0.00,Wunderground v.1.15,2013-09-16 13:05:00,
2013-09-16 06:10:00,82.7,55.9,29.69,ENE,74,0.0,1.0,40,0.00,,,0.00,Wunderground v.1.15,2013-09-16 13:10:00,
2013-09-16 06:15:00,82.7,55.9,29.69,ENE,61,0.0,1.0,40,0.00,,,0.00,Wunderground v.1.15,2013-09-16 13:15:00,
2013-09-16 06:20:00,82.7,56.6,29.69,ENE,63,1.0,1.0,41,0.00,,,0.00,Wunderground v.1.15,2013-09-16 13:20:00,
2013-09-16 06:25:00,82.8,56.7,29.69,ENE,70,0.0,1.0,41,0.00,,,0.00,Wunderground v.1.15,2013-09-16 13:25:00,
2013-09-16 06:30:00,82.4,57.0,29.69,NNE,27,0.0,1.0,42,0.00,,,0.00,Wunderground v.1.15,2013-09-16 13:30:00,
2013-09-16 06:35:00,81.7,57.0,29.70,NNE,13,0.0,1.0,43,0.00,,,0.00,Wunderground v.1.15,2013-09-16 13:35:00,
2013-09-16 06:40:00,81.4,57.4,29.70,NNE,18,0.0,0.0,44,0.00,,,0.00,Wunderground v.1.15,2013-09-16 13:40:00,
2013-09-16 06:45:00,81.3,57.9,29.70,ENE,65,2.0,2.0,45,0.00,,,0.00,Wunderground v.1.15,2013-09-16 13:45:00,
2013-09-16 06:50:00,81.7,57.7,29.70,South,187,0.0,0.0,44,0.00,,,0.00,Wunderground v.1.15,2013-09-16 13:50:00,
2013-09-16 06:55:00,82.4,57.7,29.70,East,84,0.0,1.0,43,0.00,,,0.00,Wunderground v.1.15,2013-09-16 13:55:00,
2013-09-16 07:00:00,83.2,57.7,29.70,NNW,343,0.0,1.0,42,0.00,,,0.00,Wunderground v.1.15,2013-09-16 14:00:00,
2013-09-16 07:05:00,83.5,60.5,29.70,NNE,18,0.0,1.0,46,0.00,,,0.00,Wunderground v.1.15,2013-09-16 14:05:00,
2013-09-16 07:10:00,83.7,58.2,29.70,NNE,18,0.0,0.0,42,0.00,,,0.00,Wunderground v.1.15,2013-09-16 14:10:00,
2013-09-16 07:15:00,84.5,58.2,29.70,East,79,0.0,1.0,41,0.00,,,0.00,Wunderground v.1.15,2013-09-16 14:15:00,
2013-09-16 07:20:00,85.1,58.1,29.70,ESE,104,1.0,2.0,40,0.00,,,0.00,Wunderground v.1.15,2013-09-16 14:20:00,
2013-09-16 07:25:00,85.4,57.6,29.70,ENE,69,1.0,3.0,39,0.00,,,0.00,Wunderground v.1.15,2013-09-16 14:25:00,
2013-09-16 07:30:00,85.9,56.6,29.70,ENE,67,1.0,2.0,37,0.00,,,0.00,Wunderground v.1.15,2013-09-16 14:30:00,
2013-09-16 07:35:00,86.6,57.2,29.70,North,11,1.0,2.0,37,0.00,,,0.00,Wunderground v.1.15,2013-09-16 14:35:00,
2013-09-16 07:40:00,86.9,56.7,29.71,ENE,70,0.0,1.0,36,0.00,,,0.00,Wunderground v.1.15,2013-09-16 14:40:00,
2013-09-16 07:45:00,87.3,57.8,29.71,ENE,77,0.0,3.0,37,0.00,,,0.00,Wunderground v.1.15,2013-09-16 14:45:00,
2013-09-16 07:50:00,87.3,57.8,29.71,North,8,2.0,2.0,37,0.00,,,0.00,Wunderground v.1.15,2013-09-16 14:50:00,
2013-09-16 07:55:00,87.3,57.8,29.71,NE,51,2.0,2.0,37,0.00,,,0.00,Wunderground v.1.15,2013-09-16 14:55:00,
2013-09-16 08:00:00,87.3,58.6,29.71,NNW,335,3.0,6.0,38,0.00,,,0.00,Wunderground v.1.15,2013-09-16 15:00:00,
2013-09-16 08:05:00,86.6,59.4,29.71,North,360,3.0,6.0,40,0.00,,,0.00,Wunderground v.1.15,2013-09-16 15:05:00,
2013-09-16 08:10:00,85.9,61.5,29.71,NNW,347,1.0,3.0,44,0.00,,,0.00,Wunderground v.1.15,2013-09-16 15:10:00,
2013-09-16 08:15:00,85.5,63.0,29.72,NNW,338,1.0,3.0,47,0.00,,,0.00,Wunderground v.1.15,2013-09-16 15:15:00,
2013-09-16 08:20:00,85.3,62.8,29.72,NNW,335,3.0,3.0,47,0.00,,,0.00,Wunderground v.1.15,2013-09-16 15:20:00,
2013-09-16 08:25:00,85.5,63.6,29.72,NW,312,3.0,4.0,48,0.00,,,0.00,Wunderground v.1.15,2013-09-16 15:25:00,
2013-09-16 08:30:00,85.9,65.1,29.72,NNW,344,2.0,3.0,50,0.00,,,0.00,Wunderground v.1.15,2013-09-16 15:30:00,
2013-09-16 08:35:00,86.4,64.4,29.72,NNW,342,3.0,5.0,48,0.00,,,0.00,Wunderground v.1.15,2013-09-16 15:35:00,
2013-09-16 08:40:00,86.9,64.8,29.72,North,354,2.0,3.0,48,0.00,,,0.00,Wunderground v.1.15,2013-09-16 15:40:00,
2013-09-16 08:45:00,87.8,61.9,29.72,NNW,340,0.0,5.0,42,0.00,,,0.00,Wunderground v.1.15,2013-09-16 15:45:00,
2013-09-16 08:50:00,89.2,60.3,29.72,West,273,2.0,2.0,38,0.00,,,0.00,Wunderground v.1.15,2013-09-16 15:50:00,
2013-09-16 08:55:00,90.3,60.5,29.72,North,1,3.0,6.0,37,0.00,,,0.00,Wunderground v.1.15,2013-09-16 15:55:00,
2013-09-16 09:00:00,90.7,61.6,29.72,North,356,1.0,2.0,38,0.00,,,0.00,Wunderground v.1.15,2013-09-16 16:00:00,
2013-09-16 09:05:00,91.1,61.2,29.72,North,357,3.0,5.0,37,0.00,,,0.00,Wunderground v.1.15,2013-09-16 16:05:00,
2013-09-16 09:10:00,91.9,61.9,29.72,North,349,4.0,4.0,37,0.00,,,0.00,Wunderground v.1.15,2013-09-16 16:10:00,
2013-09-16 09:15:00,91.9,61.9,29.72,North,8,4.0,6.0,37,0.00,,,0.00,Wunderground v.1.15,2013-09-16 16:15:00,
2013-09-16 09:20:00,91.7,62.5,29.72,NNE,19,2.0,3.0,38,0.00,,,0.00,Wunderground v.1.15,2013-09-16 16:20:00,
2013-09-16 09:25:00,91.9,60.3,29.72,North,8,5.0,6.0,35,0.00,,,0.00,Wunderground v.1.15,2013-09-16 16:25:00,
2013-09-16 09:30:00,92.0,62.0,29.72,NNW,348,2.0,8.0,37,0.00,,,0.00,Wunderground v.1.15,2013-09-16 16:30:00,
2013-09-16 09:35:00,92.0,62.8,29.72,NW,319,2.0,8.0,38,0.00,,,0.00,Wunderground v.1.15,2013-09-16 16:35:00,
2013-09-16 09:40:00,92.5,62.4,29.72,WNW,299,2.0,8.0,37,0.00,,,0.00,Wunderground v.1.15,2013-09-16 16:40:00,
2013-09-16 09:45:00,93.1,63.0,29.72,NNE,32,4.0,8.0,37,0.00,,,0.00,Wunderground v.1.15,2013-09-16 16:45:00,
2013-09-16 09:50:00,93.1,62.2,29.73,North,353,6.0,8.0,36,0.00,,,0.00,Wunderground v.1.15,2013-09-16 16:50:00,
2013-09-16 09:55:00,93.4,63.2,29.72,NNW,335,3.0,8.0,37,0.00,,,0.00,Wunderground v.1.15,2013-09-16 16:55:00,
2013-09-16 10:00:00,94.0,61.4,29.73,North,355,4.0,8.0,34,0.00,,,0.00,Wunderground v.1.15,2013-09-16 17:00:00,
2013-09-16 10:05:00,94.2,62.4,29.72,WNW,301,1.0,7.0,35,0.00,,,0.00,Wunderground v.1.15,2013-09-16 17:05:00,
2013-09-16 10:10:00,94.9,63.0,29.72,NNW,342,2.0,7.0,35,0.00,,,0.00,Wunderground v.1.15,2013-09-16 17:10:00,
2013-09-16 10:15:00,95.7,61.1,29.72,NW,310,1.0,4.0,32,0.00,,,0.00,Wunderground v.1.15,2013-09-16 17:15:00,
2013-09-16 10:20:00,95.9,61.3,29.72,North,1,2.0,6.0,32,0.00,,,0.00,Wunderground v.1.15,2013-09-16 17:20:00,
2013-09-16 10:25:00,95.9,65.4,29.72,NNW,348,4.0,5.0,37,0.00,,,0.00,Wunderground v.1.15,2013-09-16 17:25:00,
2013-09-16 10:29:00,95.7,66.0,29.72,NNW,330,4.0,6.0,38,0.00,,,0.00,Wunderground v.1.15,2013-09-16 17:29:00,
2013-09-16 10:34:00,95.4,68.0,29.72,WNW,301,4.0,7.0,41,0.00,,,0.00,Wunderground v.1.15,2013-09-16 17:34:00,
2013-09-16 10:39:00,95.5,65.9,29.72,NW,319,3.0,7.0,38,0.00,,,0.00,Wunderground v.1.15,2013-09-16 17:39:00,
2013-09-16 10:44:00,95.6,65.9,29.72,NW,314,5.0,6.0,38,0.00,,,0.00,Wunderground v.1.15,2013-09-16 17:44:00,
2013-09-16 10:49:00,96.0,67.8,29.72,WNW,298,3.0,6.0,40,0.00,,,0.00,Wunderground v.1.15,2013-09-16 17:49:00,
2013-09-16 10:54:00,96.7,66.9,29.72,WNW,283,3.0,5.0,38,0.00,,,0.00,Wunderground v.1.15,2013-09-16 17:54:00,
2013-09-16 10:59:00,97.2,64.2,29.71,NW,319,4.0,5.0,34,0.00,,,0.00,Wunderground v.1.15,2013-09-16 17:59:00,
2013-09-16 11:04:00,97.9,62.1,29.72,NW,324,2.0,4.0,31,0.00,,,0.00,Wunderground v.1.15,2013-09-16 18:04:00,
2013-09-16 11:09:00,98.5,64.4,29.71,WNW,290,3.0,4.0,33,0.00,,,0.00,Wunderground v.1.15,2013-09-16 18:09:00,
2013-09-16 11:14:00,99.0,62.1,29.71,NW,307,2.0,4.0,30,0.00,,,0.00,Wunderground v.1.15,2013-09-16 18:14:00,
2013-09-16 11:19:00,99.2,64.2,29.71,NNW,336,1.0,4.0,32,0.00,,,0.00,Wunderground v.1.15,2013-09-16 18:19:00,
2013-09-16 11:24:00,99.4,64.3,29.71,WNW,301,3.0,4.0,32,0.00,,,0.00,Wunderground v.1.15,2013-09-16 18:24:00,
2013-09-16 11:29:00,99.6,63.6,29.71,NW,304,2.0,4.0,31,0.00,,,0.00,Wunderground v.1.15,2013-09-16 18:29:00,
2013-09-16 11:34:00,100.2,61.2,29.71,West,266,1.0,3.0,28,0.00,,,0.00,Wunderground v.1.15,2013-09-16 18:34:00,
2013-09-16 11:39:00,101.1,62.0,29.71,WNW,284,2.0,3.0,28,0.00,,,0.00,Wunderground v.1.15,2013-09-16 18:39:00,
2013-09-16 11:44:00,101.0,62.9,29.71,West,277,1.0,3.0,29,0.00,,,0.00,Wunderground v.1.15,2013-09-16 18:44:00,
2013-09-16 11:49:00,101.4,60.1,29.70,West,278,2.0,4.0,26,0.00,,,0.00,Wunderground v.1.15,2013-09-16 18:49:00,
2013-09-16 11:54:00,101.9,58.3,29.70,West,279,2.0,3.0,24,0.00,,,0.00,Wunderground v.1.15,2013-09-16 18:54:00,
2013-09-16 11:59:00,102.5,57.6,29.70,West,277,3.0,4.0,23,0.00,,,0.00,Wunderground v.1.15,2013-09-16 18:59:00,
2013-09-16 12:04:00,102.7,57.8,29.70,West,279,2.0,4.0,23,0.00,,,0.00,Wunderground v.1.15,2013-09-16 19:04:00,
2013-09-16 12:09:00,103.0,58.1,29.70,NW,304,2.0,4.0,23,0.00,,,0.00,Wunderground v.1.15,2013-09-16 19:09:00,
2013-09-16 12:14:00,103.1,59.3,29.70,NW,311,2.0,3.0,24,0.00,,,0.00,Wunderground v.1.15,2013-09-16 19:14:00,
2013-09-16 12:19:00,102.9,61.4,29.69,West,281,2.0,3.0,26,0.00,,,0.00,Wunderground v.1.15,2013-09-16 19:19:00,
2013-09-16 12:24:00,103.0,63.6,29.69,West,281,0.0,2.0,28,0.00,,,0.00,Wunderground v.1.15,2013-09-16 19:24:00,
2013-09-16 12:29:00,103.2,63.8,29.69,WNW,298,2.0,4.0,28,0.00,,,0.00,Wunderground v.1.15,2013-09-16 19:29:00,
2013-09-16 12:34:00,103.5,61.9,29.69,West,273,2.0,4.0,26,0.00,,,0.00,Wunderground v.1.15,2013-09-16 19:34:00,
2013-09-16 12:39:00,103.4,61.8,29.69,WNW,301,2.0,4.0,26,0.00,,,0.00,Wunderground v.1.15,2013-09-16 19:39:00,
2013-09-16 12:44:00,103.7,69.8,29.68,NW,312,3.0,5.0,34,0.00,,,0.00,Wunderground v.1.15,2013-09-16 19:44:00,
2013-09-16 12:49:00,103.2,60.6,29.68,West,275,4.0,6.0,25,0.00,,,0.00,Wunderground v.1.15,2013-09-16 19:49:00,
2013-09-16 12:54:00,103.1,61.6,29.68,West,281,2.0,6.0,26,0.00,,,0.00,Wunderground v.1.15,2013-09-16 19:54:00,
2013-09-16 12:59:00,102.6,65.2,29.68,West,279,3.0,6.0,30,0.00,,,0.00,Wunderground v.1.15,2013-09-16 19:59:00,
2013-09-16 13:04:00,103.0,64.6,29.67,WNW,283,4.0,6.0,29,0.00,,,0.00,Wunderground v.1.15,2013-09-16 20:04:00,
2013-09-16 13:09:00,103.2,66.7,29.67,West,274,5.0,7.0,31,0.00,,,0.00,Wunderground v.1.15,2013-09-16 20:09:00,
2013-09-16 13:14:00,103.3,60.6,29.67,West,274,3.0,8.0,25,0.00,,,0.00,Wunderground v.1.15,2013-09-16 20:14:00,
2013-09-16 13:19:00,103.6,60.9,29.67,West,269,5.0,8.0,25,0.00,,,0.00,Wunderground v.1.15,2013-09-16 20:19:00,
2013-09-16 13:24:00,103.2,62.7,29.66,WNW,297,1.0,6.0,27,0.00,,,0.00,Wunderground v.1.15,2013-09-16 20:24:00,
2013-09-16 13:29:00,103.3,61.7,29.66,WNW,288,3.0,7.0,26,0.00,,,0.00,Wunderground v.1.15,2013-09-16 20:29:00,
2013-09-16 13:34:00,103.5,64.0,29.66,West,269,6.0,7.0,28,0.00,,,0.00,Wunderground v.1.15,2013-09-16 20:34:00,
2013-09-16 13:39:00,104.3,62.6,29.65,West,275,6.0,7.0,26,0.00,,,0.00,Wunderground v.1.15,2013-09-16 20:39:00,
2013-09-16 13:44:00,104.5,62.8,29.65,West,264,2.0,7.0,26,0.00,,,0.00,Wunderground v.1.15,2013-09-16 20:44:00,
2013-09-16 13:49:00,104.1,64.5,29.65,WNW,286,5.0,8.0,28,0.00,,,0.00,Wunderground v.1.15,2013-09-16 20:49:00,
2013-09-16 13:54:00,104.5,65.9,29.65,WNW,284,3.0,9.0,29,0.00,,,0.00,Wunderground v.1.15,2013-09-16 20:54:00,
2013-09-16 13:59:00,104.6,56.8,29.64,WSW,256,4.0,9.0,21,0.00,,,0.00,Wunderground v.1.15,2013-09-16 20:59:00,
2013-09-16 14:04:00,105.2,56.0,29.64,West,264,5.0,8.0,20,0.00,,,0.00,Wunderground v.1.15,2013-09-16 21:04:00,
2013-09-16 14:09:00,105.3,56.1,29.64,West,267,3.0,8.0,20,0.00,,,0.00,Wunderground v.1.15,2013-09-16 21:09:00,
2013-09-16 14:14:00,105.0,58.5,29.64,WSW,248,6.0,8.0,22,0.00,,,0.00,Wunderground v.1.15,2013-09-16 21:14:00,
2013-09-16 14:19:00,104.4,61.6,29.63,West,278,3.0,9.0,25,0.00,,,0.00,Wunderground v.1.15,2013-09-16 21:19:00,
2013-09-16 14:24:00,104.3,63.7,29.63,WSW,256,3.0,7.0,27,0.00,,,0.00,Wunderground v.1.15,2013-09-16 21:24:00,
2013-09-16 14:29:00,103.9,56.3,29.63,West,266,6.0,10.0,21,0.00,,,0.00,Wunderground v.1.15,2013-09-16 21:29:00,
2013-09-16 14:34:00,104.2,59.0,29.63,West,270,8.0,11.0,23,0.00,,,0.00,Wunderground v.1.15,2013-09-16 21:34:00,
2013-09-16 14:39:00,103.1,59.3,29.63,West,281,7.0,11.0,24,0.00,,,0.00,Wunderground v.1.15,2013-09-16 21:39:00,
2013-09-16 14:44:00,103.3,63.9,29.63,West,273,5.0,6.0,28,0.00,,,0.00,Wunderground v.1.15,2013-09-16 21:44:00,
2013-09-16 14:49:00,103.9,56.3,29.62,WSW,248,6.0,8.0,21,0.00,,,0.00,Wunderground v.1.15,2013-09-16 21:49:00,
2013-09-16 14:54:00,104.0,55.0,29.62,West,273,4.0,8.0,20,0.00,,,0.00,Wunderground v.1.15,2013-09-16 21:54:00,
2013-09-16 14:59:00,104.7,58.2,29.62,West,267,4.0,8.0,22,0.00,,,0.00,Wunderground v.1.15,2013-09-16 21:59:00,
2013-09-16 15:04:00,104.2,59.0,29.62,WSW,257,7.0,8.0,23,0.00,,,0.00,Wunderground v.1.15,2013-09-16 22:04:00,
2013-09-16 15:09:00,103.2,61.7,29.61,WSW,252,5.0,8.0,26,0.00,,,0.00,Wunderground v.1.15,2013-09-16 22:09:00,
2013-09-16 15:14:00,103.1,58.1,29.61,West,266,8.0,10.0,23,0.00,,,0.00,Wunderground v.1.15,2013-09-16 22:14:00,
2013-09-16 15:19:00,104.1,53.7,29.61,WSW,253,7.0,10.0,19,0.00,,,0.00,Wunderground v.1.15,2013-09-16 22:19:00,
2013-09-16 15:24:00,105.3,53.2,29.61,WSW,239,6.0,10.0,18,0.00,,,0.00,Wunderground v.1.15,2013-09-16 22:24:00,
2013-09-16 15:29:00,106.2,50.7,29.61,West,274,5.0,10.0,16,0.00,,,0.00,Wunderground v.1.15,2013-09-16 22:29:00,
2013-09-16 15:34:00,106.5,50.9,29.61,WSW,250,6.0,9.0,16,0.00,,,0.00,Wunderground v.1.15,2013-09-16 22:34:00,
2013-09-16 15:39:00,105.9,56.6,29.61,West,260,7.0,12.0,20,0.00,,,0.00,Wunderground v.1.15,2013-09-16 22:39:00,
2013-09-16 15:44:00,105.7,55.0,29.61,West,271,5.0,7.0,19,0.00,,,0.00,Wunderground v.1.15,2013-09-16 22:44:00,
2013-09-16 15:49:00,105.6,54.9,29.60,SW,235,7.0,8.0,19,0.00,,,0.00,Wunderground v.1.15,2013-09-16 22:49:00,
2013-09-16 15:54:00,105.3,56.1,29.60,West,273,4.0,9.0,20,0.00,,,0.00,Wunderground v.1.15,2013-09-16 22:54:00,
2013-09-16 15:59:00,105.9,50.5,29.60,West,264,3.0,9.0,16,0.00,,,0.00,Wunderground v.1.15,2013-09-16 22:59:00,
2013-09-16 16:04:00,105.4,60.0,29.60,SW,229,4.0,7.0,23,0.00,,,0.00,Wunderground v.1.15,2013-09-16 23:04:00,
2013-09-16 16:09:00,105.5,54.8,29.60,West,264,5.0,8.0,19,0.00,,,0.00,Wunderground v.1.15,2013-09-16 23:09:00,
2013-09-16 16:14:00,105.8,52.0,29.60,WSW,243,4.0,8.0,17,0.00,,,0.00,Wunderground v.1.15,2013-09-16 23:14:00,
2013-09-16 16:19:00,105.5,53.3,29.60,WSW,248,4.0,8.0,18,0.00,,,0.00,Wunderground v.1.15,2013-09-16 23:19:00,
2013-09-16 16:24:00,105.6,57.7,29.60,West,264,6.0,8.0,21,0.00,,,0.00,Wunderground v.1.15,2013-09-16 23:24:00,
2013-09-16 16:29:00,105.5,51.8,29.60,WSW,257,4.0,8.0,17,0.00,,,0.00,Wunderground v.1.15,2013-09-16 23:29:00,
2013-09-16 16:34:00,105.9,48.7,29.60,WNW,291,2.0,6.0,15,0.00,,,0.00,Wunderground v.1.15,2013-09-16 23:34:00,
2013-09-16 16:39:00,106.0,52.2,29.59,West,266,2.0,6.0,17,0.00,,,0.00,Wunderground v.1.15,2013-09-16 23:39:00,
2013-09-16 16:44:00,105.8,56.5,29.60,WSW,245,6.0,7.0,20,0.00,,,0.00,Wunderground v.1.15,2013-09-16 23:44:00,
2013-09-16 16:49:00,106.4,52.5,29.59,West,264,5.0,7.0,17,0.00,,,0.00,Wunderground v.1.15,2013-09-16 23:49:00,
2013-09-16 16:54:00,106.1,48.9,29.59,West,260,3.0,6.0,15,0.00,,,0.00,Wunderground v.1.15,2013-09-16 23:54:00,
2013-09-16 16:59:00,106.4,49.1,29.59,West,264,2.0,6.0,15,0.00,,,0.00,Wunderground v.1.15,2013-09-16 23:59:00,
2013-09-16 17:04:00,106.6,55.7,29.59,WNW,283,2.0,3.0,19,0.00,,,0.00,Wunderground v.1.15,2013-09-17 00:04:00,
2013-09-16 17:09:00,107.2,51.5,29.59,West,281,1.0,3.0,16,0.00,,,0.00,Wunderground v.1.15,2013-09-17 00:09:00,
2013-09-16 17:13:00,107.0,57.5,29.59,West,271,1.0,2.0,20,0.00,,,0.00,Wunderground v.1.15,2013-09-17 00:13:00,
2013-09-16 17:18:00,106.7,55.8,29.59,West,264,1.0,3.0,19,0.00,,,0.00,Wunderground v.1.15,2013-09-17 00:18:00,
2013-09-16 17:23:00,106.1,56.7,29.59,West,266,3.0,4.0,20,0.00,,,0.00,Wunderground v.1.15,2013-09-17 00:23:00,
2013-09-16 17:28:00,105.4,50.1,29.59,WSW,246,3.0,9.0,16,0.00,,,0.00,Wunderground v.1.15,2013-09-17 00:28:00,
2013-09-16 17:33:00,106.2,50.7,29.59,West,261,3.0,6.0,16,0.00,,,0.00,Wunderground v.1.15,2013-09-17 00:33:00,
2013-09-16 17:38:00,106.0,52.2,29.59,West,262,3.0,6.0,17,0.00,,,0.00,Wunderground v.1.15,2013-09-17 00:38:00,
2013-09-16 17:43:00,106.2,52.3,29.59,West,266,1.0,3.0,17,0.00,,,0.00,Wunderground v.1.15,2013-09-17 00:43:00,
2013-09-16 17:48:00,105.5,50.1,29.59,WSW,243,2.0,4.0,16,0.00,,,0.00,Wunderground v.1.15,2013-09-17 00:48:00,
2013-09-16 17:53:00,105.7,51.9,29.59,West,263,1.0,2.0,17,0.00,,,0.00,Wunderground v.1.15,2013-09-17 00:53:00,
2013-09-16 17:58:00,105.8,50.4,29.59,WSW,248,1.0,3.0,16,0.00,,,0.00,Wunderground v.1.15,2013-09-17 00:58:00,
2013-09-16 18:03:00,105.9,50.5,29.59,WSW,252,1.0,2.0,16,0.00,,,0.00,Wunderground v.1.15,2013-09-17 01:03:00,
2013-09-16 18:08:00,106.2,50.7,29.59,WSW,248,1.0,2.0,16,0.00,,,0.00,Wunderground v.1.15,2013-09-17 01:08:00,
2013-09-16 18:13:00,106.2,50.7,29.59,WSW,250,0.0,1.0,16,0.00,,,0.00,Wunderground v.1.15,2013-09-17 01:13:00,
2013-09-16 18:18:00,105.9,48.7,29.59,WSW,256,0.0,1.0,15,0.00,,,0.00,Wunderground v.1.15,2013-09-17 01:18:00,
2013-09-16 18:23:00,105.7,51.9,29.59,WSW,256,0.0,0.0,17,0.00,,,0.00,Wunderground v.1.15,2013-09-17 01:23:00,
2013-09-16 18:28:00,105.6,50.2,29.59,West,276,0.0,0.0,16,0.00,,,0.00,Wunderground v.1.15,2013-09-17 01:28:00,
2013-09-16 18:33:00,105.3,51.6,29.59,WNW,283,0.0,0.0,17,0.00,,,0.00,Wunderground v.1.15,2013-09-17 01:33:00,
2013-09-16 18:38:00,104.6,51.1,29.59,WNW,286,0.0,0.0,17,0.00,,,0.00,Wunderground v.1.15,2013-09-17 01:38:00,
2013-09-16 18:43:00,103.4,48.5,29.59,WNW,286,0.0,0.0,16,0.00,,,0.00,Wunderground v.1.15,2013-09-17 01:43:00,
2013-09-16 18:48:00,102.1,47.4,29.59,WNW,290,0.0,0.0,16,0.00,,,0.00,Wunderground v.1.15,2013-09-17 01:48:00,
2013-09-16 18:53:00,101.1,46.6,29.59,WNW,290,0.0,0.0,16,0.00,,,0.00,Wunderground v.1.15,2013-09-17 01:53:00,
2013-09-16 18:58:00,100.5,50.8,29.59,North,5,0.0,2.0,19,0.00,,,0.00,Wunderground v.1.15,2013-09-17 01:58:00,
2013-09-16 19:03:00,98.7,54.5,29.59,NNE,21,0.0,0.0,23,0.00,,,0.00,Wunderground v.1.15,2013-09-17 02:03:00,
2013-09-16 19:08:00,97.8,54.9,29.59,ENE,78,0.0,1.0,24,0.00,,,0.00,Wunderground v.1.15,2013-09-17 02:08:00,
2013-09-16 19:13:00,97.7,53.6,29.59,East,86,0.0,1.0,23,0.00,,,0.00,Wunderground v.1.15,2013-09-17 02:13:00,
2013-09-16 19:18:00,98.0,52.7,29.59,ENE,71,0.0,1.0,22,0.00,,,0.00,Wunderground v.1.15,2013-09-17 02:18:00,
2013-09-16 19:23:00,98.1,52.8,29.59,ENE,72,0.0,1.0,22,0.00,,,0.00,Wunderground v.1.15,2013-09-17 02:23:00,
2013-09-16 19:28:00,98.2,51.6,29.59,ESE,109,0.0,1.0,21,0.00,,,0.00,Wunderground v.1.15,2013-09-17 02:28:00,
2013-09-16 19:33:00,97.7,51.2,29.59,ESE,117,0.0,1.0,21,0.00,,,0.00,Wunderground v.1.15,2013-09-17 02:33:00,
2013-09-16 19:38:00,96.9,51.8,29.59,ESE,123,0.0,1.0,22,0.00,,,0.00,Wunderground v.1.15,2013-09-17 02:38:00,
2013-09-16 19:43:00,96.4,52.6,29.59,SE,124,0.0,1.0,23,0.00,,,0.00,Wunderground v.1.15,2013-09-17 02:43:00,
2013-09-16 19:48:00,95.9,53.3,29.59,ESE,119,0.0,1.0,24,0.00,,,0.00,Wunderground v.1.15,2013-09-17 02:48:00,
2013-09-16 19:53:00,95.5,53.0,29.59,ESE,113,1.0,1.0,24,0.00,,,0.00,Wunderground v.1.15,2013-09-17 02:53:00,
2013-09-16 19:58:00,95.2,52.7,29.60,ESE,120,0.0,1.0,24,0.00,,,0.00,Wunderground v.1.15,2013-09-17 02:58:00,
2013-09-16 20:03:00,94.8,52.4,29.60,ESE,118,3.0,3.0,24,0.00,,,0.00,Wunderground v.1.15,2013-09-17 03:03:00,
2013-09-16 20:08:00,94.7,52.3,29.60,ESE,113,2.0,4.0,24,0.00,,,0.00,Wunderground v.1.15,2013-09-17 03:08:00,
2013-09-16 20:13:00,95.2,52.7,29.60,ESE,105,1.0,2.0,24,0.00,,,0.00,Wunderground v.1.15,2013-09-17 03:13:00,
2013-09-16 20:18:00,94.7,53.4,29.60,ESE,123,1.0,2.0,25,0.00,,,0.00,Wunderground v.1.15,2013-09-17 03:18:00,
2013-09-16 20:23:00,94.3,52.0,29.60,ESE,112,0.0,1.0,24,0.00,,,0.00,Wunderground v.1.15,2013-09-17 03:23:00,
2013-09-16 20:28:00,94.0,52.8,29.60,ESE,117,1.0,1.0,25,0.00,,,0.00,Wunderground v.1.15,2013-09-17 03:28:00,
2013-09-16 20:33:00,93.8,52.7,29.60,ESE,120,1.0,1.0,25,0.00,,,0.00,Wunderground v.1.15,2013-09-17 03:33:00,
2013-09-16 20:38:00,93.6,52.5,29.61,ESE,104,2.0,2.0,25,0.00,,,0.00,Wunderground v.1.15,2013-09-17 03:38:00,
2013-09-16 20:43:00,93.3,52.2,29.61,ESE,116,1.0,2.0,25,0.00,,,0.00,Wunderground v.1.15,2013-09-17 03:43:00,
2013-09-16 20:48:00,93.0,52.0,29.60,ESE,115,1.0,3.0,25,0.00,,,0.00,Wunderground v.1.15,2013-09-17 03:48:00,
2013-09-16 20:53:00,93.0,52.0,29.61,ESE,113,0.0,1.0,25,0.00,,,0.00,Wunderground v.1.15,2013-09-17 03:53:00,
2013-09-16 20:58:00,92.8,51.8,29.61,ESE,116,1.0,3.0,25,0.00,,,0.00,Wunderground v.1.15,2013-09-17 03:58:00,
2013-09-16 21:01:00,92.8,51.8,29.61,ESE,110,3.0,3.0,25,0.00,,,0.00,Wunderground v.1.15,2013-09-17 04:01:00,
2013-09-16 21:06:00,92.8,51.8,29.61,ESE,120,1.0,3.0,25,0.00,,,0.00,Wunderground v.1.15,2013-09-17 04:06:00,
2013-09-16 21:11:00,92.6,51.6,29.62,ESE,119,1.0,1.0,25,0.00,,,0.00,Wunderground v.1.15,2013-09-17 04:11:00,
2013-09-16 21:16:00,92.1,53.3,29.62,WSW,249,4.0,4.0,27,0.00,,,0.00,Wunderground v.1.15,2013-09-17 04:16:00,
2013-09-16 21:21:00,91.4,52.7,29.61,ESE,114,0.0,1.0,27,0.00,,,0.00,Wunderground v.1.15,2013-09-17 04:21:00,
2013-09-16 21:26:00,91.6,51.9,29.62,ESE,115,0.0,2.0,26,0.00,,,0.00,Wunderground v.1.15,2013-09-17 04:26:00,
2013-09-16 21:31:00,91.4,51.7,29.62,ESE,108,2.0,2.0,26,0.00,,,0.00,Wunderground v.1.15,2013-09-17 04:31:00,
2013-09-16 21:36:00,91.5,50.7,29.62,ESE,115,0.0,2.0,25,0.00,,,0.00,Wunderground v.1.15,2013-09-17 04:36:00,
2013-09-16 21:41:00,91.2,53.5,29.62,ESE,108,0.0,1.0,28,0.00,,,0.00,Wunderground v.1.15,2013-09-17 04:41:00,
2013-09-16 21:46:00,90.0,51.5,29.62,ESE,108,0.0,1.0,27,0.00,,,0.00,Wunderground v.1.15,2013-09-17 04:46:00,
2013-09-16 21:51:00,88.3,52.0,29.62,East,98,1.0,1.0,29,0.00,,,0.00,Wunderground v.1.15,2013-09-17 04:51:00,
2013-09-16 21:56:00,88.4,53.9,29.63,South,191,0.0,1.0,31,0.00,,,0.00,Wunderground v.1.15,2013-09-17 04:56:00,
2013-09-16 22:01:00,88.7,50.4,29.63,ESE,113,0.0,1.0,27,0.00,,,0.00,Wunderground v.1.15,2013-09-17 05:01:00,
2013-09-16 22:06:00,89.0,51.7,29.63,ESE,110,0.0,1.0,28,0.00,,,0.00,Wunderground v.1.15,2013-09-17 05:06:00,
2013-09-16 22:11:00,88.9,51.6,29.63,ESE,108,0.0,0.0,28,0.00,,,0.00,Wunderground v.1.15,2013-09-17 05:11:00,
2013-09-16 22:16:00,88.5,51.2,29.63,ESE,108,0.0,0.0,28,0.00,,,0.00,Wunderground v.1.15,2013-09-17 05:16:00,
2013-09-16 22:21:00,88.0,50.8,29.63,ESE,108,0.0,0.0,28,0.00,,,0.00,Wunderground v.1.15,2013-09-17 05:21:00,
2013-09-16 22:25:00,87.8,49.7,29.63,ESE,108,0.0,0.0,27,0.00,,,0.00,Wunderground v.1.15,2013-09-17 05:25:00,
2013-09-16 22:30:00,87.8,50.6,29.63,West,281,1.0,2.0,28,0.00,,,0.00,Wunderground v.1.15,2013-09-17 05:30:00,
2013-09-16 22:35:00,87.2,56.2,29.63,WSW,255,1.0,2.0,35,0.00,,,0.00,Wunderground v.1.15,2013-09-17 05:35:00,
2013-09-16 22:40:00,85.9,61.5,29.63,West,278,1.0,2.0,44,0.00,,,0.00,Wunderground v.1.15,2013-09-17 05:40:00,
2013-09-16 22:45:00,84.0,62.2,29.63,WNW,302,0.0,2.0,48,0.00,,,0.00,Wunderground v.1.15,2013-09-17 05:45:00,
2013-09-16 22:50:00,83.0,61.9,29.63,WNW,290,0.0,0.0,49,0.00,,,0.00,Wunderground v.1.15,2013-09-17 05:50:00,
2013-09-16 22:55:00,82.7,62.2,29.63,WNW,289,0.0,1.0,50,0.00,,,0.00,Wunderground v.1.15,2013-09-17 05:55:00,
2013-09-16 23:00:00,82.3,61.8,29.63,ESE,110,0.0,2.0,50,0.00,,,0.00,Wunderground v.1.15,2013-09-17 06:00:00,
2013-09-16 23:05:00,82.4,61.3,29.63,ENE,76,0.0,2.0,49,0.00,,,0.00,Wunderground v.1.15,2013-09-17 06:05:00,
2013-09-16 23:10:00,82.6,60.3,29.63,ENE,76,0.0,0.0,47,0.00,,,0.00,Wunderground v.1.15,2013-09-17 06:10:00,
2013-09-16 23:15:00,82.3,61.2,29.63,NNE,16,0.0,2.0,49,0.00,,,0.00,Wunderground v.1.15,2013-09-17 06:15:00,
2013-09-16 23:20:00,81.6,59.4,29.63,ENE,68,2.0,2.0,47,0.00,,,0.00,Wunderground v.1.15,2013-09-17 06:20:00,
2013-09-16 23:25:00,82.0,59.8,29.64,NNE,26,0.0,2.0,47,0.00,,,0.00,Wunderground v.1.15,2013-09-17 06:25:00,
2013-09-16 23:30:00,82.1,59.9,29.64,NNW,348,1.0,2.0,47,0.00,,,0.00,Wunderground v.1.15,2013-09-17 06:30:00,
2013-09-16 23:35:00,81.7,58.9,29.63,ENE,76,0.0,2.0,46,0.00,,,0.00,Wunderground v.1.15,2013-09-17 06:35:00,
2013-09-16 23:40:00,82.2,58.1,29.63,ENE,76,0.0,0.0,44,0.00,,,0.00,Wunderground v.1.15,2013-09-17 06:40:00,
2013-09-16 23:45:00,82.7,57.9,29.63,ENE,77,0.0,0.0,43,0.00,,,0.00,Wunderground v.1.15,2013-09-17 06:45:00,
2013-09-16 23:50:00,83.3,57.8,29.63,ENE,75,0.0,0.0,42,0.00,,,0.00,Wunderground v.1.15,2013-09-17 06:50:00,
2013-09-16 23:55:00,83.7,58.2,29.63,ENE,75,0.0,0.0,42,0.00,,,0.00,Wunderground v.1.15,2013-09-17 06:55:00,